www.pogodaiklimat.ru

Погода и климат >> Архив погоды >> Антарктида >> Syowa


ПОГОДА в Syowa

  • Прогноз погоды в Syowa
  • Монитор погоды в Syowa
  • Климат города

АРХИВ ПОГОДЫ в Syowa

Время (UTC), дата Ветер
(напр.,м/с)
 
Видим.   Явления Облачность Т
(С)
Тd
(С)
f
(%)
Тe
(С)
Тes
(С)
Комфортность P
(гПа)
Po
(гПа)
Тmin
(С)
Tmax
(С)
R
(мм)
R24
(мм)
S
(см)
00 14.05 СЗ 1 30 км 3/0
[Ci sp]
-19.6 -25.0 62 -23 -23 997.5 994.6 -19.6 -11.8
03 14.05 В 3 30 км 3/0
[Ci sp]
-17.5 -22.7 64 -25 -25 996.0 993.1
06 14.05 Ю 5 30 км 1/0
[Ci sp]
-16.0 -22.1 59 -25 -25 994.9 992.0
09 14.05 ЮВ 3 30 км 1/0
[Ci sp]
-13.3 -22.5 46 -19 -19 994.4 991.6
12 14.05 Ю 5 30 км 1/0
[Ci sp]
-12.8 -22.1 46 -21 -21 994.1 991.3 -21.8 -11.9
15 14.05 В 3 30 км 1/0
[Ci sp]
-14.2 -21.5 54 -20 -20 994.4 991.6
18 14.05 В 2 30 км ясно -14.1 -22.3 50 -18 -18 994.8 992.0
21 14.05 В 3 30 км ясно -13.7 -23.5 43 -19 -19 994.5 991.7
00 15.05 СВ 3 30 км ясно -13.2 -24.2 39 -20 -20 994.9 992.1 -16.5 -12.5
03 15.05 СВ 3 30 км ясно -15.2 -24.5 45 -22 -22 995.3 992.4
06 15.05 В 6 30 км 1/1
[Sc Ac trans]
-14.7 -23.7 46 -24 -24 995.9 993.0
09 15.05 В 4 30 км 1/0
[Ac trans Ci sp]
-14.5 -23.6 46 -22 -22 996.4 993.5
12 15.05 СВ 3 30 км 1/0
[Ac trans Ci sp]
-15.0 -24.0 46 -21 -21 996.8 993.9 -16.1 -13.2
15 15.05 СВ 2 30 км 1/0
[Ac trans Ci sp]
-16.0 -24.7 47 -20 -20 996.4 993.5
18 15.05 В 2 30 км 1/0
[Ci sp]
-16.0 -26.0 42 -21 -21 995.6 992.7
21 15.05 В 3 30 км 1/0
[Ci sp]
-17.0 -25.9 46 -23 -23 994.9 992.0
00 16.05 ЮЗ 1 30 км 1/0
[Ac trans]
-17.6 -28.0 40 -18 -18 993.7 990.8 -19.3 -15.0
03 16.05 В 2 30 км 1/0
[Ac trans]
-17.4 -27.2 42 -23 -23 992.3 989.4
06 16.05 В 1 30 км 1/0
[Ac trans]
-18.3 -28.0 42 -19 -19 991.3 988.4
09 16.05 В 2 30 км 1/0
[Ac trans]
-18.8 -28.0 44 -23 -23 990.2 987.3
12 16.05 СВ 1 30 км 1/0
[Ac trans]
-19.9 -28.6 46 -23 -23 989.8 986.9 -20.2 -16.2
15 16.05 В 2 30 км 1/0
[Ac trans]
-19.7 -28.2 47 -24 -24 988.9 986.0
18 16.05 В 6 30 км 1/0
[Ac trans]
-19.8 -27.6 50 -30 -30 989.5 986.6
21 16.05 СВ 5 30 км 1/0
[Ac trans]
-18.7 -27.5 46 -29 -29 990.7 987.8
00 17.05 СВ 8 30 км 1/0
[Ac trans]
-18.6 -27.4 46 -31 -31 опасность
обморожения
992.5 989.6 -20.3 -18.2
03 17.05 В 10 30 км 1/0
[Ac trans]
-19.7 -26.8 53 -33 -33 опасность
обморожения
993.6 990.7
06 17.05 В 8 30 км 1/0
[Ac As]
-19.6 -28.3 46 -32 -32 опасность
обморожения
994.9 992.0
09 17.05 В 4 30 км 1/0
[Ac As]
-19.6 -28.1 47 -28 -28 995.7 992.8
12 17.05 В 3 30 км 1/0
[Ac As]
-19.4 -28.3 45 -27 -27 995.9 993.0 -20.9 -18.4
15 17.05 В 4 30 км 1/0
[Ac As]
-20.8 -28.9 48 -30 -30 995.8 992.9
18 17.05 В 5 30 км 1/0
[Ac trans]
-20.8 -27.3 56 -31 -31 опасность
обморожения
995.6 992.7
21 17.05 В 4 30 км 9/0
[Ci sp]
-19.0 -23.3 69 -28 -28 995.6 992.7
00 18.05 В 5 30 км 9/0
[Ac trans Ci fib]
-19.8 -24.7 65 -30 -30 995.3 992.4 -21.2 -18.7
03 18.05 СВ 1 20 км 9/0
[Ac As]
-19.2 -23.4 69 -22 -22 995.3 992.4
06 18.05 СВ 2 20 км 9/1
[Sc Ac As Ci sp]
-20.1 -27.6 51 -26 -26 996.0 993.1
09 18.05 СВ 4 20 км 9/1
[Sc Ac As]
-18.4 -26.3 50 -26 -26 996.3 993.4
12 18.05 В 2 10 км слабый снег 10/8
[Sc Ac As]
-18.6 -25.6 54 -23 -23 996.8 993.9 -20.4 -18.0
15 18.05 СВ 5 10 км слабый снег 10/9
[Sc Ac As]
-18.2 -24.2 59 -27 -27 996.5 993.6
18 18.05 СВ 5 10 км в посл. час снег 10/10
[Sc]
-16.9 -22.5 62 -26 -26 996.3 993.4
21 18.05 СВ 8 10 км слабый снег 9/9
[Sc]
-16.2 -19.7 74 -28 -28 996.1 993.2
00 19.05 СВ 9 10 км слабый снег 10/10
[Sc]
-14.4 -18.2 73 -26 -26 996.3 993.4 -18.9 -14.4
03 19.05 СВ 13 8000 м слабый снег 10/10
[Sc]
-12.6 -15.2 81 -25 -25 996.7 993.9
06 19.05 СВ 13 10 км в посл. час снег 9/9
[Sc Ac As]
-13.4 -18.1 68 -26 -26 998.6 995.8
09 19.05 СВ 12 10 км 9/9
[Sc Ac As]
-14.2 -20.3 60 -27 -27 1001.3 998.4
12 19.05 СВ 4 20 км 9/1
[Sc Ac As]
-14.7 -24.1 45 -22 -22 1003.8 1000.9 -15.3 -12.4
15 19.05 В 4 20 км 8/1
[Sc Ac As]
-16.0 -26.5 40 -24 -24 1004.2 1001.3
18 19.05 В 5 20 км 1/0
[Ac trans]
-17.3 -27.2 42 -26 -26 1004.1 1001.2
21 19.05 ЮЗ 1 20 км 1/0
[Ac trans]
-19.1 -27.6 47 -22 -22 1003.8 1000.9
00 20.05 В 5 20 км 3/0
[Ac As]
-19.9 -27.2 52 -30 -30 1002.8 999.9 -20.0 -14.7
03 20.05 В 1 20 км 1/0
[Ac trans]
-20.7 -28.4 50 -24 -24 1001.9 999.0
06 20.05 В 1 30 км 1/0
[Ac trans]
-22.1 -28.9 54 -25 -25 1001.5 998.5
09 20.05 С 2 30 км 1/0
[Ac As]
-22.5 -30.7 47 -29 -29 1001.5 998.5
12 20.05 В 2 30 км 1/0
[Ac As Ci sp]
-21.9 -31.1 43 -28 -28 1001.2 998.2 -22.7 -18.9
15 20.05 В 2 30 км 1/0
[Ac As]
-23.2 -30.5 51 -30 -30 1000.7 997.7
18 20.05 В 2 20 км 1/0
[Ac As]
-23.1 -31.5 46 -30 -30 999.9 996.9

 

Местоположение метеостанции Syowa (Антарктида): широта -69.00 долгота 39.58 высота над уровнем моря 21 м.

В архиве по умолчанию представлена погода в Syowa за последнюю неделю. Архивные данные за месяц целиком и за предыдущие месяцы, начиная с января 2011 года, Вы можете получить, выбрав интересующий диапазон дат из раскрывающегося списка и нажав кнопку "Ввод!".


*Определитесь, кто Вы:
робот инопланетянин человек

Внимание! Время в таблицах - всемирное. Для получения местного времени необходимо прибавить поправку, которая в Syowa равна 0 ч.

Смотрите также архив погоды в соседних городах и на ближайших метеорологических станциях:

Погода в Molodezhnaya (Антарктида) (297 км)
Погода в Relay Station (Антарктида) (570 км)

Пояснения к столбцам:

Ветер - указаны скорость ветра в м/с - средняя за 10 мин, порывы в срок и между сроками (в фигурных скобках) и направление, откуда дует ветер: С - северный, СВ - северо-восточный, В - восточный, ЮВ - юго-восточный, Ю - южный, ЮЗ - юго-западный, З - западный, СЗ - северо-западный.
Видимость - горизонтальная дальность видимости в метрах или километрах. При видимости от 1 до 10 км при отсутствии осадков обычно наблюдается дымка, при ухудшении видимости до 1 км и менее - туман. В сухую погоду видимость может ухудшаться дымом, пылью или мглою.
Явления - указаны атмосферные явления, наблюдавшиеся в срок или в последний час перед сроком; фигурными скобками обозначены явления, наблюдавшиеся между сроками (за 1-3 часа до срока); квадратными скобками обозначены град или гололедные отложения с указанием их диаметра в мм.
Облачность - указаны через наклонную черту общая и нижняя облачность в баллах и высота нижней границы облаков в метрах; квадратными скобками обозначены формы облаков: Ci - перистые, Cs - перисто-слоистые, Cc - перисто-кучевые, Ac - высококучевые, As - высокослоистые, Sc - слоисто-кучевые, Ns - слоисто-дождевые, Cu - кучевые, Cb - кучево-дождевые. Подробнее классификацию облаков см. в Атласе облаков (PDF).
T - Температура воздуха - температура, измеренная на высоте 2 м над землей.
Td - Температура точки росы - температура, при понижении до которой содержащийся в воздухе водяной пар достигнет насыщения.
f - Относительная влажность воздуха - влажноcть воздуха, измеренная на высоте 2 м над землей.
Te - Эффективная температура - температура, которую ощущает одетый по сезону человек в тени. Характеристика душности погоды. При расчете учитывается влияние влажности воздуха и скорости ветра на теплоощущения человека.
Tes - Эффективная температура на солнце - температура, которую ощущает человек, с поправкой на солнечный нагрев. Характеристика знойности погоды. Зависит от высоты солнца над горизонтом, облачности и скорости ветра. Ночью, в пасмурную погоду, а также при ветре 12 м/с и более поправка равна нулю.
P - Атмосферное давление - приведенное к уровню моря атмосферное давление.
Po - Атмосферное давление - измеренное на уровне метеостанции атмосферное давление.
Tmin - Минимальная температура - минимум температуры воздуха на высоте 2 м над землей.
Tmax - Максимальная температура - максимум температуры воздуха на высоте 2 м над землей.
R - Количество осадков - Количество выпавших осадков за период времени, мм. При наведении курсора мыши на число - период времени, за который выпало указанное количество осадков.
R24 - Количество осадков - Количество выпавших осадков за 24 часа, мм.
S - Снежный покров - Высота снежного покрова, см. При наведении курсора мыши на число - состояние снежного покрова и степень покрытия местности в баллах.